Regional Weather Roundup
Issued by NWS Wakefield, VA

Home | Current Version | Previous Version | Text Only | Print | Product List | Glossary Off
Versions: 1 2 3 4 5 6 7 8 9 10 11 12 13 14 15 16 17 18 19 20 21 22 23 24 25 26 27 28 29 30 31 32 33 34 35 36 37 38 39 40 41 42 43 44 45 46 47 48 49 50

000
ASUS41 KAKQ 291415
RWRAKQ

REGIONAL WEATHER ROUNDUP
NATIONAL WEATHER SERVICE WAKEFIELD VA
1000 AM EDT MON JUN 29 2015

Note: "fair" indicates few or no clouds below 12,000 feet with no
significant weather and/or obstructions to visibility. * = Denotes
station may not report precipitation (e.g., rain,snow,etc.),
thunder or fog.

VAZ042-051-052>054-056-291500-
NORTHERN VIRGINIA

CITY           SKY/WX    TMP DP  RH WIND       PRES   REMARKS
WASH NATIONAL  MOSUNNY   78  53  41 W8        29.99S
DULLES         MOSUNNY   73  53  49 SW8       29.99R
FORT BELVOIR   SUNNY     76  54  45 VRB6      29.99S
QUANTICO       NOT AVBL
FREDERICKSBRG* SUNNY     77  54  44 SW8       30.00S
STAFFORD*      SUNNY     73  56  54 W5        30.04F
WARRENTON      SUNNY     75  59  57 S7        30.00F
CULPEPER*      SUNNY     74  54  49 SW7       30.01S
MANASSAS*      SUNNY     73  55  53 SW10      30.00R
LEESBURG*      SUNNY     73  59  60 SW7       30.00S
WINCHESTER     SUNNY     72  54  53 SW12      29.99F
FRONT ROYAL*   FAIR      70  54  56 SW8       30.00S
LURAY*         FAIR      72  59  64 CALM      30.01F
$$

VAZ048-049-060>072-079>083-291500-
CENTRAL AND SOUTH CENTRAL VIRGINIA

CITY           SKY/WX    TMP DP  RH WIND       PRES   REMARKS
RICHMOND       MOSUNNY   76  54  46 S3        30.02S
CHESTERFIELD*  NOT AVBL
PETERSBURG*    MOSUNNY   77  62  60 NE3       30.03S
HANOVER        SUNNY     75  55  49 E5        30.03S
TAPPAHANNOCK*  SUNNY     76  47  36 CALM      30.02S
QUINTON*       FAIR      74  55  50 CALM      30.02S
CHARLOTTSVILLE SUNNY     71  55  56 CALM      30.02S
GORDONSVILLE*  FAIR      73  57  56 CALM      30.01S
ORANGE*        SUNNY     75  57  53 CALM      30.02F
LOUISA*        SUNNY     73  55  53 SW3       30.01S
BUMPASS*       FAIR      74  56  55 CALM      30.02S
FARMVILLE*     SUNNY     76  52  44 SE6       30.02S
CREWE*         FAIR      73  56  55 E3        30.03S
FORT PICKETT*  PTSUNNY   73  57  55 E3        30.03S
CHASE CITY*    FAIR      77  58  52 E3        30.03S
CLARKSVILLE*   FAIR      77  59  53 E7        30.02S
SOUTH HILL*    SUNNY     75  59  57 CALM      30.08S
LAWRENCEVILLE* NOT AVBL
EMPORIA*       SUNNY     73  59  60 NE6       30.04S
$$

VAZ088>098-291500-
SOUTHEAST VIRGINIA

CITY           SKY/WX    TMP DP  RH WIND       PRES   REMARKS
NORFOLK        SUNNY     77  52  41 N8        30.02R
VIRGINIA BEACH MOSUNNY   80  58  46 NE6       30.01R
NORFOLK NAVAL  MOSUNNY   76  53  44 N9        30.03S
WEST POINT*    SUNNY     78  49  36 CALM      30.03S
SALUDA*        FAIR      74  54  49 N3        30.01S
NEWPORT NEWS   SUNNY     77  53  43 CALM      30.02S
LANGLEY AFB    SUNNY     76  53  44 NE6       30.00S
FORT EUSTIS    SUNNY     76  56  50 VRB2      30.00S
WILLIAMSBURG*  SUNNY     77  61  57 CALM      30.03S
HR EXEC AP*    FAIR      77  61  57 E5        30.04S
FRANKLIN*      SUNNY     76  57  52 NE6       30.03R
WAKEFIELD      SUNNY     77  58  51 VRB5      30.03R
$$

VAZ020-022-025-037-045-291500-
WEST CENTRAL AND SOUTHWEST VIRGINIA

CITY           SKY/WX    TMP DP  RH WIND       PRES   REMARKS
STAUNTON*      SUNNY     70  60  70 CALM      30.05F
WAYNESBORO*    FAIR      70  56  61 CALM      30.04S
HOT SPRINGS VA PTSUNNY   62  55  78 SE6       30.10S
LYNCHBURG      SUNNY     73  56  54 CALM      30.05S
DANVILLE       SUNNY     74  58  57 E5        30.03S
SOUTH BOSTON*  FAIR      73  60  63 MISG      30.02F
MARTINSVILLE   SUNNY     74  57  55 CALM      30.06F
ROANOKE        PTSUNNY   68  56  65 CALM      30.07S
BLACKSBURG     PTSUNNY   65  56  71 CALM      30.10
DUBLIN*        MOSUNNY   68  56  65 CALM      30.09S
MARION*        SUNNY     67  54  62 CALM      30.10F
HILLSVILLE*    MOSUNNY   65  55  72 S5        30.11F
RICHLANDS*     FAIR      65  55  69 S3        30.06F
WISE*          MOSUNNY   68  50  52 S8        30.07S
ABINGDON*      SUNNY     69  56  64 SW6       30.06F
$$

MDZ021>025-VAZ099-100-291500-
SOUTHERN MARYLAND AND THE DELMARVA PENINSULA

CITY           SKY/WX    TMP DP  RH WIND       PRES   REMARKS
PATUXENT RIVER MOSUNNY   75  53  46 W9        29.99S
BAY BRIDGE APT   N/A     72  52  49 W8        29.98S
LEONARDTOWN    NOT AVBL
DOVER          SUNNY     72  58  60 SW14      29.94S
GEORGETOWN     SUNNY     73  53  49 VRB6      29.98S
EASTON         NOT AVBL
CAMBRIDGE      SUNNY     73  52  46 NW8       29.98S
SALISBURY      SUNNY     73  54  51 W8        29.98S
OCEAN CITY     NOT AVBL
WALLOPS ISLAND MOSUNNY   76  54  46 NW8       30.00S
ACCOMACK*      SUNNY     75  57  53 NW5       30.01R
$$

NCZ012>017-030>032-291500-
NORTH CENTRAL AND EASTERN NORTH CAROLINA

CITY           SKY/WX    TMP DP  RH WIND       PRES   REMARKS
ROANOKE RAPIDS FAIR      75  61  60 NE6       30.01F
RALEIGH        MOSUNNY   77  58  51 NE10      30.01S
ELIZABETH CITY SUNNY     80  61  52 N8        30.01R
AHOSKIE*       SUNNY     76  59  55 NE6       30.01S
EDENTON*       SUNNY     80  65  61 E8        30.00S
CURRITUCK*     SUNNY     79  56  45 E5        30.02S
KILL DEVIL HLS SUNNY     82  62  51 E7        30.00S
MANTEO         SUNNY     79  64  60 E9        30.01S
CAPE HATTERAS  PTSUNNY   79  68  69 SE9       30.00R
TARBORO*         N/A     79  64  60 NE6       30.01S
GOLDSBORO      NOT AVBL
WASHINGTON     SUNNY     79  65  63 NE7       29.99S
GREENVILLE     SUNNY     79  63  57 E7        30.01S
NEW BERN       SUNNY     82  66  58 E3        29.99S
WILMINGTON     PTSUNNY   81  73  76 E8        29.97S
$$

VAZ048-291500-
ELSEWHERE

CITY           SKY/WX    TMP DP  RH WIND       PRES   REMARKS
HARRISBURG PA  SUNNY     70  54  56 NW9       29.95S
BALTIMORE      MOSUNNY   73  54  51 W12       29.97S
ANNAPOLIS      SUNNY     73  54  51 W7        29.97S
ANDREWS AFB    SUNNY     74  59  58 SW9       29.98S
PHILADELPHIA   MOSUNNY   70  52  52 W13       29.95R
HENDERSON NC   SUNNY     74  58  55 E5        30.02F
GREENSBORO     PTSUNNY   76  54  46 E9        30.02S
ROCKY MOUNT    SUNNY     79  63  57 NE7       30.00S
$$

VAZ100-291500-
MARINE

STATION/POSITION TIME  TEMP    WIND        PRES    WAVE   SWELL
                       AIR SEA DIR/SP/G            HT/PER HT/PER
                 (UTC) (F)     (DEG/KT/KT) (MB)    (FT/S) (FT/S)
BRANDYWINE LGT   1300   68 72  280/ 13/ 15 1014.8R
CAPE MAY NJ      1300   69 76  290/ 11/ 14 1014.3R
LEWES DE         1300   70 71  280/ 13/ 15 1014.7R
15NM E FENWICK I 1350   70 72              1014.8R   4/ 8
OCEAN-CITY-INLET 1300   71 72  290/ 10/ 12 1014.9R
WACHAPREAGUE VA  1300   74 76  360/  4/  8 1015.9R
GOOSES REEF MD   1400   74 77  280/  8/ 10 1016.4S
COVE POINT MD    1300   72     300/  6/  8 1016.1R
SOLOMONS ISLAND  1300      79                N/A
BISHOPS HEAD MD  1300   72     310/ 11/ 14 1015.3R
PINEY POINT MD   1300          300/  6/  8   N/A
CAMBRIDGE MD     1300   72 79  260/  8/ 12 1015.2R
LEWISETTA VA     1300   73 78  300/  6/  8 1015.4R
RAPPAHANNOCK LGT 1300          340/ 12/ 12 1016.4R
STINGRAY PT      1400   75 79  330/  6/  8 1016.3R   1/ 3
YORK RVR RNG VA  1300   73     360/  6/  7 1015.6R
YORKTOWN VA      1300   73 80   CALM  /  2 1016.0R
JAMESTOWN VA     1400   74 83  180/  2/  6   N/A
DOMINION TERM VA 1300   75      10/  6/  9 1016.3R
KIPTOPEKE VA     1300      81   30/  7/  9   N/A
CHES BAY BRIDGE  1300   74 76  350/  9/ 11 1015.8R
CAPE HENRY VA    1300   73     360/ 10/ 13 1014.7R
CHESAPEAKE LGHT  1300   74     330/ 11/ 12 1016.7R
WILLOUBY STN VA  1300   74     360/  8/ 10 1017.2R
CAPE HENRY BUOY  1328      77                N/A     3/ 8
1ST LANDING BUOY 1400      77              1016.1R   2/ 3
CAPE CHARLES BUO 1326      76                N/A     2/ 9   2/ 8
OFFSHORE WE BUOY 1341      77                N/A     4/ 8   3/ 8
64NM E OF VA BCH 1350   75 75   90/  4/  4 1016.0R   5/ 7   5/ 7
DUCK PIER NC     1300   77 69   70/  8/  9 1015.1R
44100 DUCK FRF   1324      76                N/A     3/ 7
44056 DUCK FRF   1311      75                N/A     2/ 8
OREGON INLET NC  1300   75 77   30/  6/  7 1015.9R
HATTERAS NC      1300   78 80  130/  7/  9 1015.1R
DIAMOND SHLS NC  1350   77 81  130/ 14/ 16 1015.4S   4/ 7   3/ 7
CAPE LOOKOUT NC  1400   77     130/ 12/ 13 1015.3R
$$


USA.gov is the U.S. government's official web portal to all federal, state and local government web resources and services.